* Astronomy

Members Login
Username 
 
Password 
    Remember Me  
Post Info TOPIC: Asteroid 2011 DO


L

Posts: 131433
Date:
Asteroid 2011 DO
Permalink  
 


Orbital elements:
2011 DO Earth MOID = 0.0364 AU
Epoch 2011 Feb. 8.0 TT = JDT 2455600.5 MPC
M 35.24903 (2000.0) P Q
n 0.68939103 Peri. 261.47466 +0.54629342 -0.82933375
a 1.2690896 Node 154.31047 +0.83465575 +0.52728479
e 0.4526652 Incl. 15.70517 +0.07009474 +0.18486825
P 1.43 H 23.0 G 0.15 U 8
MPEC 2011 - D27

__________________
Page 1 of 1  sorted by
 
Quick Reply

Please log in to post quick replies.



Create your own FREE Forum
Report Abuse
Powered by ActiveBoard